Regional Weather Roundup
Issued by NWS Wilmington, NC

Home | Current Version | Previous Version | Text Only | Print | Product List | Glossary On
Versions: 1 2 3 4 5 6 7 8 9 10 11 12 13 14 15 16 17 18 19 20 21 22 23 24 25 26 27 28 29 30 31 32 33 34 35 36 37 38 39 40 41 42 43 44 45 46 47 48 49 50
000
ASUS42 KILM 282110
RWRILM
RWRILM
REGIONAL HOURLY WEATHER ROUNDUP
NATIONAL WEATHER SERVICE WILMINGTON NC
400 PM EST SAT FEB 28 2015

NOTE: "FAIR" INDICATES FEW OR NO CLOUDS BELOW 12,000 FEET WITH NO
SIGNIFICANT WEATHER AND/OR OBSTRUCTIONS TO VISIBILITY.

...............WFO WILMINGTON COUNTY WARNING AREA...............

......COASTAL NC AND SC COUNTIES......

CITY           SKY/WX    TMP DP  RH WIND       PRES   REMARKS
WILMINGTON     CLOUDY    47  23  38 NE16      30.64R
SOUTHPORT      CLOUDY    45  29  53 NE9G21    30.61S
N MYRTLE BEACH CLOUDY    50  25  37 NE10      30.60S
MYRTLE BEACH   CLOUDY    52  27  37 NE15      30.61F

......INLAND NC AND SC COUNTIES.......

CITY           SKY/WX    TMP DP  RH WIND       PRES   REMARKS
LUMBERTON      SUNNY     45  24  43 NE14      30.64F
ELIZABETHTOWN  SUNNY     43  23  45 NE6       30.65F
WHITEVILLE     PTSUNNY   48  23  38 NE15      30.62S
FLORENCE       SUNNY     50  25  37 NE17      30.61F
DARLINGTON     SUNNY     48  27  43 E14       30.63F

....................REST OF NORTH CAROLINA......................

.........EASTERN NC.........

CITY           SKY/WX    TMP DP  RH WIND       PRES   REMARKS
CAPE HATTERAS  CLOUDY    34  27  75 N16G28    30.69S WCI  24
JACKSONVILLE   PTSUNNY   43  21  42 N14       30.67F
MOREHEAD CITY  CLOUDY    39  25  57 N18G28    30.67S WCI  30
KENANSVILLE    SUNNY     40  22  47 N7        30.68F
NEW BERN       SUNNY     42  20  41 NE13      30.70F
ELIZABETH CITY SUNNY     33  17  51 NE15      30.74F WCI  23

.........CENTRAL NC.........

CITY           SKY/WX    TMP DP  RH WIND       PRES   REMARKS
RALEIGH DURHAM PTSUNNY   37  13  37 E9        30.69F WCI  30
ROCKY MOUNT    MOSUNNY   39  15  37 VRB6G17   30.71F WCI  35
ROANOKE RAPIDS NOT AVBL
FAYETTEVILLE   MOSUNNY   43  16  33 NE9       30.66F
HOFFMAN        SUNNY     44  18  36 NE9G16    30.68S

.........WESTERN NC.........

CITY           SKY/WX    TMP DP  RH WIND       PRES   REMARKS
CHARLOTTE      CLOUDY    43  18  36 E8G18     30.63F
GREENSBORO     CLOUDY    35  17  47 NE6       30.64F WCI  30
HICKORY        NOT AVBL
BOONE          NOT AVBL
ASHEVILLE      NOT AVBL

.....................REST OF SOUTH CAROLINA.....................

.........EASTERN SC.........

CITY           SKY/WX    TMP DP  RH WIND       PRES   REMARKS
CHARLESTON     LGT RAIN  51  30  44 NE9       30.56S
BEAUFORT MCAS  CLOUDY    46  39  76 NE8       30.55R
HILTON HEAD    PTSUNNY   46  39  76 N8G14     30.55R

.........CENTRAL SC.........

CITY           SKY/WX    TMP DP  RH WIND       PRES   REMARKS
COLUMBIA       PTSUNNY   52  26  36 NE9G17    30.58F
ORANGEBURG     PTSUNNY   52  26  36 E14G20    30.57F
SUMTER SHAW    PTSUNNY   50  26  38 E13       30.58S

.........WESTERN SC.........

CITY           SKY/WX    TMP DP  RH WIND       PRES   REMARKS
GREENVILLE     NOT AVBL
ROCK HILL      MOSUNNY   45  22  40 VRB6      30.61F
ANDERSON       SUNNY     47  23  38 E10       30.56F
CLEMSON        NOT AVBL
GREENWOOD      MOSUNNY   49  25  39 NE8       30.58F


...................COASTAL AND OFFSHORE REPORTS..................

................LOCAL PIERS AND NC RESERVE................


STATION/POSITION TIME  SKY/WX   TEMP    WIND        PRES    VSBY
                                AIR SEA DIR/SP/G
                 (UTC)          (F)     (DEG/KT/KT) (MB)    (MI)
JOHNY MRCER PIER 2100            45 48   60/ 17/ 19 1036.6S
NC RESRV MASNBRO 2000            45      50/ 12     1036.0S
OCEAN CREST PIER 2100            47 46   20/ 10/ 13 1035.5R
SPRINGMAID  PIER 2100            48 45   30/  9/ 12 1036.0F


................COASTAL AND OFFSHORE BUOYS................


STATION/POSITION TIME  SKY/WX   TEMP    WIND        PRES    VSBY
                                AIR SEA DIR/SP/G
                 (UTC)          (F)     (DEG/KT/KT) (MB)    (MI)
DIMNDSHOAL 41025 NOT AVBL
CAPE LOOKOUT     2100            38      20/ 19/ 23 1038.1R
ONSLOW BAY 41036 NOT AVBL
5 WRITEBCH 41038 NOT AVBL
MASONBORO  41110 2100               46                N/A
WVE H/P(F/S)=  5/ 6 WND WVE H/P(F/S)=  5/ 6

WILM HARBR 41108 2100               46                N/A
WVE H/P(F/S)=  5/ 5 WND WVE H/P(F/S)=  5/ 5

27WRITEBCH 41037 NOT AVBL
FRYING PAN 41013 2100            48 62   50/ 25/ 31 1035.3F
WVE H/P(F/S)=  9/ 6 WND WVE H/P(F/S)= 10/ 6

SUNST NRSH 41024 2000            48      50/ 14/ 17   N/A
CAPRS NRSH 41029 NOT AVBL
EDISTO     41004 2100            52 66   40/ 27/ 33 1032.6R
WVE H/P(F/S)=  9/ 8 WND WVE H/P(F/S)=  8/ 7 SWL H/P/D(F/S/D)=  5/ 8



..........OFFSHORE BUOYS BEYOND 100 NM OFFSHORE...........
.....IN A TRIANGLE---HAT TO BERMUDA TO BAHAMAS TO HAT.....


STATION/POSITION TIME  SKY/WX   TEMP    WIND        PRES    VSBY
                                AIR SEA DIR/SP/G
                 (UTC)          (F)     (DEG/KT/KT) (MB)    (MI)
150E HAT   41001 NOT AVBL
W BERMUDA  41048 2028            65 69   30/ 23/ 29 1028.2S
WVE H/P(F/S)= 10/ 9 WND WVE H/P(F/S)= 10/ 9

ATLANTIC S 41049 1957            74 74  100/ 10/ 12 1025.4
WVE H/P(F/S)=  5/ 9 WND WVE H/P(F/S)=  2/ 4 SWL H/P/D(F/S/D)=  5/110/ 9

E BAHAMAS  41046 2009            77 78   90/ 16/ 17 1022.4F
WVE H/P(F/S)=  6/ 9 WND WVE H/P(F/S)=  5/ 7 SWL H/P/D(F/S/D)=  5/120/ 9

NE BAHAMAS 41047 1954            75 76   50/  4/  6 1025.2
WVE H/P(F/S)=  5/ 9 WND WVE H/P(F/S)=  2/ 3 SWL H/P/D(F/S/D)=  5/350/ 9

120E CANVRL41010 2100            71 72   70/ 21/ 25 1027.0R
WVE H/P(F/S)=  8/ 8 WND WVE H/P(F/S)=  7/ 8 SWL H/P/D(F/S/D)=  3/ 40/ 9


END


USA.gov is the U.S. government's official web portal to all federal, state and local government web resources and services.